TimeCDT,TemperatureF,Dew PointF,Humidity,Sea Level PressureIn,VisibilityMPH,Wind Direction,Wind SpeedMPH,Gust SpeedMPH,PrecipitationIn,Events,Conditions,WindDirDegrees,DateUTC
12:56 AM,61.0,57.9,90,30.09,10.0,Calm,Calm,-,N/A,,Scattered Clouds,0,2013-08-01 05:56:00
1:56 AM,64.0,59.0,84,30.07,9.0,Calm,Calm,-,N/A,,Partly Cloudy,0,2013-08-01 06:56:00
2:56 AM,61.0,57.9,90,30.07,10.0,SSW,3.5,-,N/A,,Clear,210,2013-08-01 07:56:00
3:56 AM,59.0,57.0,93,30.05,10.0,Calm,Calm,-,N/A,,Clear,0,2013-08-01 08:56:00
4:56 AM,57.0,55.9,96,30.05,10.0,Calm,Calm,-,N/A,,Clear,0,2013-08-01 09:56:00
5:56 AM,55.9,55.0,97,30.06,10.0,Calm,Calm,-,N/A,,Partly Cloudy,0,2013-08-01 10:56:00
6:56 AM,55.0,55.0,100,30.06,9.0,Calm,Calm,-,N/A,,Scattered Clouds,0,2013-08-01 11:56:00
7:56 AM,63.0,59.0,87,30.04,10.0,Calm,Calm,-,N/A,,Scattered Clouds,0,2013-08-01 12:56:00
8:56 AM,69.1,61.0,75,30.04,10.0,SW,3.5,-,N/A,,Scattered Clouds,220,2013-08-01 13:56:00
9:56 AM,75.0,64.0,69,30.03,10.0,Variable,3.5,-,N/A,,Partly Cloudy,0,2013-08-01 14:56:00
10:56 AM,79.0,64.0,60,30.01,10.0,West,10.4,-,N/A,,Scattered Clouds,270,2013-08-01 15:56:00
11:56 AM,82.0,64.9,56,30.01,10.0,WNW,11.5,-,N/A,,Scattered Clouds,290,2013-08-01 16:56:00
12:56 PM,82.0,64.0,54,30.00,10.0,WNW,11.5,18.4,N/A,,Scattered Clouds,290,2013-08-01 17:56:00
1:56 PM,84.0,63.0,49,29.97,10.0,NW,9.2,-,N/A,,Mostly Cloudy,320,2013-08-01 18:56:00
2:56 PM,84.0,64.9,53,29.95,10.0,NW,5.8,-,N/A,,Mostly Cloudy,320,2013-08-01 19:56:00
3:56 PM,84.0,64.9,53,29.94,10.0,NW,6.9,-,N/A,,Mostly Cloudy,320,2013-08-01 20:56:00
4:56 PM,79.0,64.0,60,29.94,10.0,WSW,8.1,16.1,0.00,,Mostly Cloudy,250,2013-08-01 21:56:00
5:56 PM,79.0,66.9,66,29.92,10.0,SSW,10.4,-,N/A,,Mostly Cloudy,210,2013-08-01 22:56:00
6:56 PM,77.0,64.0,64,29.92,10.0,SW,8.1,-,N/A,,Mostly Cloudy,220,2013-08-01 23:56:00
7:56 PM,75.9,63.0,64,29.90,10.0,WNW,3.5,-,N/A,,Mostly Cloudy,290,2013-08-02 00:56:00
8:56 PM,73.0,63.0,71,29.90,10.0,WSW,3.5,-,N/A,,Partly Cloudy,240,2013-08-02 01:56:00
9:56 PM,68.0,61.0,78,29.92,10.0,WNW,3.5,-,N/A,,Partly Cloudy,300,2013-08-02 02:56:00
10:56 PM,66.0,61.0,84,29.92,10.0,Calm,Calm,-,N/A,,Partly Cloudy,0,2013-08-02 03:56:00
11:56 PM,63.0,60.1,90,29.88,10.0,NNE,5.8,-,N/A,,Partly Cloudy,20,2013-08-02 04:56:00